RH
13 11 16 26 37 32 29 22 14 11 16 15 13 14 14 14 15 36 51 48 57 58 60 58 59 61 54 53 58 60 62 58 52 71 69 71 69 67 61 61 76 86 90 94 98 99 98 70 60
13 19 26 30 36 40 34 14 14 16 15 12 11 11 13 17 38 57 56 50 62 58 58 58 55 63 62 55 56 70 64 62 58 77 83 72 76 71 69 78 82 85 87 90 91 94 88 55 52
11 24 32 33 38 39 30 12 13 12 12 11 11 10 12 16 34 47 46 49 47 54 61 65 59 55 60 62 58 68 65 75 68 72 72 72 51 82 81 84 81 83 87 89 89 92 63 62 69
23 28 22 22 26 18 17 12 12 11 10 12 12 14 11 15 30 35 44 36 44 46 51 62 66 61 57 60 67 63 76 78 61 78 72 47 58 75 84 84 81 80 85 89 91 92 59 65 73
22 24 25 26 23 16 12 10 11 11 10 12 13 14 15 27 34 40 40 42 43 47 49 53 66 68 65 61 64 70 70 77 72 80 70 54 49 70 86 83 85 83 80 87 82 65 61 63 68
29 22 27 29 20 13 11 10 11 13 12 12 12 15 17 39 37 41 42 45 46 52 64 67 68 78 76 76 74 71 80 79 79 80 76 59 61 61 87 85 88 83 80 78 68 61 57 56 58
28 27 28 24 20 15 11 11 13 14 13 15 12 16 37 47 40 43 45 50 54 60 74 80 80 80 88 90 99 90 80 80 77 85 80 69 66 72 81 81 87 86 81 42 45 53 57 55 51
22 22 25 21 20 17 11 10 13 12 13 10 12 17 23 50 45 47 50 55 60 67 69 72 83 80 78 88 100 100 96 83 83 94 75 83 72 78 90 84 88 87 71 28 38 42 52 48 48
14 23 25 21 18 14 10 10 10 10 10 10 11 13 16 46 47 52 56 63 63 71 67 59 67 72 72 80 83 92 99 98 83 91 87 90 73 87 93 90 89 77 48 31 33 42 46 44 46
20 23 21 16 14 14 11 12 10 10 13 13 14 14 30 50 52 60 64 74 76 77 76 74 75 81 84 90 82 72 78 88 94 75 70 99 78 79 90 91 82 69 42 28 36 31 43 46 47
19 21 16 14 12 12 12 12 10 10 12 12 12 13 43 50 53 54 54 54 62 74 78 81 87 89 88 92 78 67 90 100 92 80 88 90 92 99 100 98 88 89 34 29 31 34 42 48 48
23 17 15 13 11 11 12 12 13 12 12 11 10 9 14 42 46 49 46 38 58 78 82 82 81 82 83 87 77 81 86 96 100 90 76 88 99 100 100 98 83 53 31 28 32 32 41 49 47
21 18 15 14 12 12 13 13 15 14 12 11 10 10 12 32 32 38 39 48 62 76 81 84 84 83 77 88 82 88 95 99 100 97 99 98 99 100 100 96 69 49 39 38 34 36 43 48 55
21 20 19 18 17 14 14 15 15 14 13 12 12 15 15 24 33 47 52 56 55 67 82 77 78 85 82 92 84 84 84 94 99 82 100 89 99 100 100 89 67 60 46 39 36 43 39 47 54
20 25 22 20 17 16 14 16 16 13 13 12 12 11 16 25 33 50 48 54 53 59 72 69 71 83 92 88 88 86 92 94 95 99 100 98 99 98 99 88 74 62 51 40 53 58 55 50 53
16 20 31 22 20 18 17 22 15 13 14 13 12 11 16 25 31 37 44 47 55 64 70 71 79 84 88 85 86 88 94 90 92 99 95 92 91 99 100 92 75 64 57 45 60 65 62 58 56
20 25 26 23 19 19 19 23 18 22 13 13 14 14 17 20 36 40 39 47 58 67 71 76 83 87 89 91 88 92 97 92 91 88 92 90 74 81 94 93 78 73 64 55 58 64 62 56 54
25 27 22 24 20 25 28 29 24 23 18 15 18 19 18 19 38 42 45 55 68 73 73 78 80 87 93 90 94 99 99 95 95 95 95 94 74 82 85 89 80 78 70 62 61 67 60 54 54
13 17 19 17 19 26 29 31 27 22 21 16 17 21 20 19 35 46 54 63 74 80 82 84 90 95 94 94 90 94 98 100 98 93 96 88 87 78 81 78 76 76 73 69 64 62 57 51 50
13 17 18 16 21 22 28 36 32 29 25 21 18 17 16 17 45 51 69 74 80 87 85 86 92 88 88 90 91 90 86 98 100 100 93 94 80 72 86 77 72 73 74 72 66 59 52 48 46
19 23 22 19 18 23 32 40 37 28 21 16 16 16 14 25 50 59 70 82 85 85 79 88 92 88 95 89 88 86 89 90 98 100 100 100 83 82 84 75 69 70 71 69 64 54 50 47 53
26 21 22 22 25 33 30 46 45 33 24 19 15 15 16 22 50 57 70 89 90 81 80 86 92 90 93 91 91 99 97 99 99 94 100 100 95 86 87 67 66 66 74 73 66 55 48 50 58
21 25 25 26 29 32 29 33 36 24 22 18 16 17 15 16 51 58 65 83 85 78 80 82 85 94 93 91 94 97 100 100 99 99 100 100 99 99 89 69 70 67 74 73 74 61 50 57 56
20 28 30 27 32 44 31 32 33 27 22 18 16 15 17 16 47 55 61 77 84 79 76 78 85 93 89 95 99 98 99 100 100 100 99 100 100 100 93 70 72 72 69 65 63 58 66 70 70
23 34 57 58 55 50 29 34 31 27 20 17 16 16 20 24 48 57 64 74 86 89 80 83 83 93 90 97 100 96 98 100 98 100 100 100 100 100 99 88 81 68 68 60 71 69 73 67 78
32 35 65 66 68 48 39 62 46 26 24 21 14 16 25 46 48 54 58 68 84 86 83 84 87 90 93 94 100 97 93 96 100 97 100 100 100 99 100 96 90 77 73 76 81 78 66 65 73
20 34 27 47 45 59 53 42 32 43 42 34 18 15 26 39 46 54 55 66 84 85 86 81 86 79 86 88 99 96 96 95 100 100 98 100 100 100 100 95 84 84 88 91 90 76 69 62 74
19 21 34 46 72 80 50 42 46 48 54 43 28 25 23 34 40 49 52 62 80 82 84 79 85 80 88 88 97 94 93 94 95 99 98 98 100 99 94 93 89 89 95 88 81 78 72 68 55
63 31 26 32 54 71 73 55 43 65 67 61 40 24 24 27 36 46 50 58 73 79 82 83 83 78 87 95 100 97 92 92 94 98 97 94 94 95 99 98 93 93 85 75 78 81 68 74 74
58 67 56 36 44 53 52 49 27 40 40 55 42 32 35 32 38 40 48 57 70 75 80 82 84 82 86 89 94 92 91 87 91 98 95 94 97 95 87 88 89 90 84 82 80 70 69 73 73
Wind_Speed
9 8 5 3 3 3 5 9 6 3 6 4 7 8 2 4 6 4 11 10 14 12 13 13 13 15 18 20 20 20 21 24 22 21 24 23 23 23 23 25 27 29 28 26 24 25 24 25 24
7 3 4 2 3 1 6 3 6 10 7 8 6 3 3 5 7 8 9 11 14 12 10 13 13 16 19 19 21 21 21 21 25 25 24 28 22 21 23 25 27 27 26 25 25 25 27 29 32
8 7 1 3 3 6 5 3 8 6 8 5 2 0 1 2 7 14 15 15 15 11 9 13 13 16 19 21 22 23 23 25 26 30 28 25 26 19 24 27 27 28 25 24 25 25 32 36 37
1 3 4 1 12 16 11 6 7 5 5 8 6 2 1 9 10 16 19 13 15 14 12 12 15 16 20 23 25 26 27 28 29 31 34 30 27 19 23 27 29 28 28 25 26 26 35 37 37
5 1 3 5 11 14 16 6 8 6 3 3 6 4 4 4 23 24 18 14 14 14 12 13 14 18 20 22 25 28 30 31 32 33 32 29 24 21 22 26 29 31 30 26 27 33 34 37 33
2 3 1 5 13 11 8 6 7 6 3 4 4 3 1 27 26 21 18 14 13 10 10 12 13 16 21 23 25 28 33 35 34 35 32 30 38 33 27 26 28 30 31 30 32 34 35 36 31
5 1 6 9 14 15 15 4 8 7 5 3 2 2 4 7 25 22 18 15 13 12 9 7 9 11 18 21 24 28 31 34 33 36 23 32 38 37 38 33 30 31 29 31 34 35 33 33 27
5 3 8 11 11 14 12 3 6 7 5 3 6 4 5 8 26 21 18 17 13 13 13 12 11 12 14 18 24 26 31 33 34 37 29 41 44 37 36 35 34 32 31 33 35 37 34 30 26
3 6 10 17 12 19 11 4 3 6 5 4 6 7 12 31 25 19 15 15 14 13 12 12 11 11 13 15 17 19 22 26 37 38 31 48 35 37 34 36 34 32 32 33 37 36 33 31 27
6 7 11 11 15 17 14 10 7 2 5 5 5 9 12 27 26 18 14 17 21 21 16 13 10 9 12 14 17 17 20 27 29 36 32 26 38 38 38 38 33 32 34 34 35 35 33 29 27
8 14 14 16 17 19 16 9 6 8 8 6 6 6 13 15 19 16 19 20 24 24 19 15 13 12 14 16 10 10 11 26 37 33 39 27 37 39 39 38 35 32 33 34 34 34 32 30 26
15 17 16 17 16 18 18 7 8 5 9 7 8 5 6 12 13 10 13 14 16 25 21 15 11 9 10 12 13 15 13 16 30 31 33 48 36 38 37 39 38 37 35 35 35 33 32 31 25
14 16 18 17 16 13 14 18 8 8 13 10 10 10 7 11 11 21 18 14 19 21 18 14 9 9 12 13 16 14 11 17 16 37 50 50 43 38 36 39 40 38 37 37 36 32 33 29 21
9 12 14 14 13 10 12 11 5 9 13 11 13 12 12 10 11 11 17 15 12 16 20 12 8 10 14 16 16 17 8 8 12 46 45 46 43 40 38 40 40 39 39 37 36 31 30 24 19
8 12 15 17 12 14 10 21 12 13 13 14 16 16 12 11 12 13 24 21 19 18 18 12 8 11 12 19 20 17 14 15 24 36 43 41 40 40 37 35 37 38 38 38 34 30 24 21 17
6 6 8 10 10 9 7 23 21 17 15 19 17 20 10 10 13 21 25 19 24 25 20 13 12 11 11 9 21 18 21 26 29 32 42 38 42 40 38 36 35 37 37 38 33 29 29 25 22
4 12 13 20 12 17 16 18 12 24 23 18 12 9 9 8 9 18 26 25 29 27 23 18 16 14 12 10 11 18 22 30 34 36 41 42 42 46 42 36 36 37 38 36 34 28 32 28 24
6 11 14 15 11 6 11 19 17 20 23 10 10 9 9 8 12 21 30 30 29 26 22 20 16 14 14 15 13 15 23 26 35 41 40 42 45 42 43 37 40 39 40 37 35 29 31 28 26
14 16 19 17 8 7 11 15 21 22 26 12 9 10 10 10 13 23 28 31 28 27 24 18 18 18 17 16 17 16 18 26 32 37 39 45 44 43 41 41 42 42 39 40 37 35 32 29 25
20 21 19 13 5 10 11 17 18 21 25 26 9 9 9 4 18 16 22 24 27 27 24 19 21 20 18 18 18 17 23 24 29 36 43 46 46 46 43 43 43 42 39 39 38 35 32 29 26
17 12 8 12 11 12 9 19 14 23 24 20 9 9 7 7 18 15 16 21 27 26 24 22 22 21 18 17 16 14 15 17 26 28 38 43 48 49 44 43 39 43 40 35 35 35 30 27 24
17 7 12 14 8 8 5 18 15 21 26 24 16 14 12 8 18 17 15 16 24 26 24 21 22 21 18 17 16 17 18 18 23 35 35 45 46 48 44 38 38 34 41 36 32 31 29 26 22
12 8 14 9 5 6 10 14 10 13 16 21 16 13 19 14 23 21 19 22 25 29 26 22 23 21 20 18 16 9 13 15 24 26 25 36 44 44 46 37 38 36 39 40 36 32 27 21 22
3 3 9 3 2 10 9 13 10 13 15 21 17 13 8 16 23 20 19 25 23 28 27 22 23 23 20 19 19 15 17 16 17 23 28 29 40 41 42 37 34 30 30 32 29 25 20 20 21
3 2 3 3 4 12 5 13 11 14 21 23 23 17 7 11 23 20 19 16 22 25 28 22 24 22 21 20 20 18 19 20 21 22 29 31 28 34 37 37 36 31 24 23 19 24 26 23 23
8 8 5 7 4 9 4 7 5 12 19 20 20 12 9 19 20 20 20 17 23 25 27 23 23 21 21 22 20 21 20 23 22 24 25 28 31 33 36 35 31 29 26 26 26 25 26 25 33
8 7 11 8 6 6 4 9 12 8 17 20 13 5 10 16 19 20 18 16 24 26 28 27 24 23 23 23 22 21 23 24 23 22 26 27 30 32 40 39 38 36 29 31 27 28 30 28 29
6 4 3 3 4 6 6 12 9 6 19 26 10 12 9 13 19 20 18 18 25 28 28 28 26 22 25 26 26 25 24 23 24 26 25 26 26 29 40 41 38 36 30 32 31 30 32 35 34
6 3 4 2 6 4 3 4 7 11 10 13 19 5 12 6 15 19 18 20 27 28 29 28 29 25 26 25 27 27 27 24 24 27 30 29 29 28 31 33 33 31 32 34 33 33 36 31 34
4 3 8 7 8 5 7 10 10 6 3 14 17 11 15 9 5 15 18 18 23 26 29 29 29 26 27 25 23 27 27 28 29 28 30 32 32 31 34 35 35 34 33 35 35 38 35 35 33
Wind_Direction
233 244 274 302 36 83 266 261 224 78 69 42 61 77 136 234 238 196 134 103 128 128 148 160 170 173 169 167 169 173 171 168 158 159 152 144 139 137 135 133 131 128 130 131 130 127 127 127 126
223 267 252 265 127 303 279 266 99 107 122 87 59 125 229 235 84 126 121 139 133 132 152 164 176 183 178 175 180 181 176 176 165 157 151 142 133 137 137 138 137 134 134 133 132 129 128 127 124
233 217 113 160 209 198 239 335 120 125 122 118 99 232 200 219 117 147 152 147 130 137 169 176 178 186 190 188 190 192 189 183 171 161 154 148 137 146 149 146 146 143 138 138 134 134 133 129 126
209 333 326 145 251 260 244 270 117 77 66 125 145 104 253 116 139 156 152 144 150 158 181 183 190 197 198 199 196 199 192 189 177 169 155 149 141 151 163 157 153 147 143 141 135 141 138 136 134
232 296 220 236 254 267 277 203 128 116 107 98 156 220 204 87 135 139 142 157 157 170 190 189 196 201 204 205 202 205 200 199 188 177 171 172 158 163 173 167 157 152 148 148 142 147 145 139 136
303 135 308 254 270 278 284 180 130 116 94 308 298 223 20 127 131 144 148 158 174 158 179 184 196 204 208 210 210 210 205 203 192 178 180 161 155 162 183 172 164 158 157 153 150 150 145 138 137
219 358 247 263 278 304 293 183 147 141 160 241 156 122 150 112 150 158 154 159 171 176 167 202 220 219 219 213 213 217 216 207 198 183 189 175 160 173 175 173 170 166 163 150 149 152 148 138 140
203 159 280 272 281 278 291 327 121 132 201 173 130 197 201 196 156 153 159 172 180 195 206 217 227 241 241 223 219 219 222 215 205 194 198 185 168 170 174 169 173 171 164 151 154 152 150 147 140
266 251 250 257 266 273 294 359 223 200 166 163 200 210 223 154 152 153 166 180 189 194 203 207 224 242 240 233 231 229 228 220 206 190 180 181 172 170 168 174 176 174 163 155 155 158 155 146 140
198 247 241 257 268 278 297 324 309 175 245 241 227 249 140 146 157 166 184 189 193 184 199 215 215 229 249 252 249 246 233 218 195 194 195 173 171 173 173 175 178 174 163 155 160 157 154 153 147
239 243 252 261 266 279 286 303 305 309 308 250 233 251 152 161 172 181 197 202 210 204 192 203 200 204 236 242 219 216 219 220 211 199 193 191 177 165 169 169 171 170 162 158 162 161 158 156 155
250 257 257 260 257 267 281 272 291 263 255 267 287 257 175 176 184 184 189 197 146 171 182 186 203 219 220 203 198 201 201 191 179 190 197 193 179 162 163 165 171 168 163 161 164 163 161 160 151
257 258 263 269 264 256 265 269 258 272 277 281 286 281 261 180 180 185 185 150 129 156 163 174 198 214 202 201 208 206 215 209 197 184 166 172 171 164 165 169 171 168 167 166 163 165 161 159 144
267 288 286 285 288 288 297 281 263 272 264 257 253 249 239 193 179 139 147 143 149 149 160 163 191 214 208 201 203 203 210 196 245 185 160 168 168 167 170 169 171 171 170 167 162 164 166 162 147
314 308 302 292 281 280 300 292 285 270 262 258 257 253 233 188 172 167 174 174 178 167 160 162 196 202 212 216 208 208 197 150 132 150 166 169 168 165 167 167 171 172 172 169 167 165 173 170 165
331 306 287 278 292 286 274 269 270 266 251 260 256 252 192 206 186 170 176 178 172 152 150 151 175 181 189 190 198 201 193 162 155 149 169 172 170 169 166 169 170 171 174 175 174 173 180 176 168
216 259 258 284 269 281 278 287 297 329 252 252 256 204 212 235 176 163 170 156 157 149 146 153 174 166 174 171 171 181 180 173 168 180 180 178 184 182 168 171 171 174 176 179 179 188 175 169 174
232 236 259 258 263 309 312 301 298 302 299 245 243 230 219 223 187 155 149 147 147 147 152 163 182 179 182 178 164 175 177 182 174 172 176 182 185 180 174 173 173 177 177 181 187 190 176 176 175
255 264 269 278 285 292 294 290 290 308 309 258 258 234 228 225 177 142 139 146 145 149 152 166 175 179 178 179 182 182 181 176 185 189 184 186 182 178 180 183 178 183 181 183 187 179 174 174 176
242 252 259 277 263 282 291 279 284 296 290 284 231 253 244 206 152 143 137 145 150 154 154 169 182 186 196 187 187 191 195 195 193 190 192 192 188 184 182 184 185 186 184 187 185 177 169 177 181
255 252 262 262 269 250 277 275 277 287 293 277 259 248 247 157 156 149 148 150 154 160 160 170 185 188 191 192 195 203 210 213 215 197 188 189 189 185 185 185 186 187 182 181 174 177 170 174 186
246 236 270 272 281 271 183 284 283 286 286 281 255 248 237 172 163 156 152 158 161 167 165 169 180 185 188 193 193 191 204 204 208 220 189 187 186 184 182 179 173 175 182 177 169 178 178 185 176
268 232 235 238 255 303 282 279 285 252 269 280 271 244 236 212 164 170 170 163 161 167 166 174 187 183 187 195 198 197 196 196 211 206 201 177 178 183 182 179 169 166 170 176 183 189 192 192 187
249 324 292 242 222 262 260 268 267 261 264 278 267 262 219 204 171 165 156 149 154 168 167 175 185 189 188 192 186 167 162 150 165 170 169 175 178 177 179 178 176 174 169 169 174 185 183 192 209
156 30 296 287 235 252 245 266 261 273 259 254 262 267 277 172 154 152 153 154 157 166 167 171 182 179 192 190 188 168 165 148 147 161 161 155 157 166 174 177 184 184 179 176 186 192 195 205 216
200 166 190 227 228 269 249 263 244 265 278 294 262 269 171 137 146 156 160 158 159 162 165 170 174 175 186 189 186 183 168 163 151 152 149 158 163 167 172 175 179 182 186 190 201 200 205 220 224
227 198 221 251 289 288 243 274 291 351 327 310 274 238 172 150 152 155 159 158 158 159 167 174 176 188 189 187 181 182 179 169 159 162 165 164 169 172 178 178 184 187 196 198 197 206 217 216 233
180 166 237 242 211 245 241 256 253 334 313 309 351 31 347 167 156 158 161 161 160 162 166 175 183 188 186 187 184 185 184 183 181 171 168 170 172 175 179 185 185 191 206 202 212 218 224 225 238
346 327 220 202 186 226 312 270 80 123 271 335 326 8 338 19 171 163 163 163 160 161 166 175 187 187 184 185 183 182 185 188 186 180 178 177 182 177 184 186 189 199 208 213 217 218 225 228 228
166 236 320 225 237 224 229 252 270 33 26 345 321 19 321 349 322 160 160 158 160 163 167 175 181 184 184 184 184 185 185 186 184 177 183 185 183 184 193 194 197 204 209 217 222 225 225 233 244